TROLLHATTAN PRIVATE current weather conditions

sailwx.info

Wind from 210 at 6 knots

Air temperature 6.0° C
Visibility: greater than 5.4 NM
Dewpoint 4.0° C

Last reported at 2014-Nov-24 17:50 UTC.
Time now 2014-Nov-25 00:43 UTC

Location: N 58°19' E 012°21'.
View on Google Maps.

See reports from other nearby stations

  
Tides and Currents Weather Stations Pressure Air Temp Water Temp Dewpoint Dewpoint Depression Visibility Wind Speed Wind Dir Waves Ship Positions
date/time (UTC)wind fromknots sea level pressurealtimeterstation pressurevisibilityair tempwater tempwave heightnotes
2014-Nov-24 17:50 210 6 5.4 6.0
2014-Nov-24 17:20 210 6 6.0
2014-Nov-24 16:50 200 7 6.0
2014-Nov-24 16:20 210 8 7.0
2014-Nov-24 15:50 220 7 5.4 7.0
2014-Nov-24 15:20 220 9 7.0
2014-Nov-24 14:50 220 8 5.4 8.0
2014-Nov-24 14:20 220 9 5.4 8.0
2014-Nov-24 13:50 240 12 5.4 8.0
2014-Nov-24 13:20 220 10 5.4 8.0
2014-Nov-24 12:50 230 13 5.4 8.0
2014-Nov-24 12:20 220 12 5.4 9.0
2014-Nov-24 11:50 230 12 5.4 8.0
2014-Nov-24 11:20 220 11 5.4 9.0
2014-Nov-24 10:50 220 11 5.4 8.0
2014-Nov-24 10:20 200 10 5.4 8.0
2014-Nov-24 09:50 200 8 5.4 8.0
2014-Nov-24 09:20 210 9 4.9 8.0 Light rain. Mist.
2014-Nov-24 08:50 190 8 4.9 8.0 Rain.
2014-Nov-24 08:20 190 7 4.9 8.0 Light rain.
2014-Nov-24 07:50 190 8 3.2 8.0 Rain.
2014-Nov-24 07:20 190 8 4.3 8.0 Rain.
2014-Nov-24 06:50 180 12 3.8 8.0 Rain.
2014-Nov-24 06:20 170 13 4.3 8.0 Rain.
2014-Nov-24 05:50 170 13 2.7 8.0 Rain.
2014-Nov-24 05:20 170 12 3.2 7.0 Rain.
2014-Nov-24 04:50 160 13 3.8 7.0 Rain.
2014-Nov-23 20:20 150 15 5.4 7.0
2014-Nov-23 19:50 130 14 5.4 6.0
2014-Nov-23 19:20 150 16 5.4 7.0
2014-Nov-23 18:50 140 13 5.4 6.0
2014-Nov-23 18:20 140 11 5.4 6.0
2014-Nov-23 17:20 140 11 5.4 6.0
2014-Nov-23 16:50 140 8 5.4 6.0 Light rain.
2014-Nov-23 15:50 130 11 5.4 6.0 Rain showers.
2014-Nov-23 15:20 130 10 5.4 7.0 Light rain.
2014-Nov-23 14:50 130 8 5.4 7.0
2014-Nov-23 14:20 120 10 5.4 7.0
2014-Nov-23 13:50 140 9 5.4 7.0